DW3838 Weather Reports


Display with metric or nautical units.
time (UTC)temp
F
wind
direction
speed
MPH
gust
MPH
rain 1hr
in
rain 24hr
in
rain mn
in
humidity
%
barometer
mb
20260502163019 53 290 0.0 0.0 0.00 0.00 0.00 93 1013.6
20260502161515 53 290 0.0 0.0 0.00 0.00 0.00 93 1013.6
20260502151600 53 175 0.0 0.0 0.00 0.00 0.00 93 1013.1
20260502130105 52 207 0.0 0.0 0.00 0.00 0.00 94 1012.4
20260502123113 52 207 0.0 0.0 0.00 0.00 0.00 94 1012.5
20260502121556 52 207 0.0 0.0 0.00 0.00 0.00 94 1012.5
20260502120109 52 207 0.0 0.0 0.00 0.00 0.00 94 1012.2
20260502114550 52 207 0.0 0.0 0.00 0.00 0.00 94 1012.4
20260502113052 52 145 0.0 0.0 0.00 0.00 0.00 93 1012.5
20260502111549 52 145 0.0 0.0 0.00 0.00 0.00 93 1012.3
20260502110048 52 145 0.0 0.0 0.00 0.00 0.00 94 1012.2
20260502104546 52 145 0.0 0.0 0.00 0.00 0.00 94 1012.4
20260502103046 52 145 0.0 0.0 0.00 0.00 0.00 93 1012.5
20260502101546 52 145 0.0 0.0 0.00 0.00 0.00 93 1012.4
20260502100149 52 145 0.0 0.0 0.00 0.00 0.00 93 1012.4
20260502071516 50 145 0.0 0.0 0.00 0.00 0.00 92 1013.1
20260502070017 50 196 0.0 0.0 0.00 0.00 0.00 92 1013.1
20260502064512 50 196 0.0 0.0 0.00 0.00 0.00 91 1013.1
20260502063012 50 196 0.0 0.0 0.00 0.00 0.00 91 1013.1
20260502061511 49 196 0.0 0.0 0.00 0.00 0.00 91 1013.1
20260502060012 49 196 0.0 0.0 0.00 0.00 0.00 90 1013.3
20260502054510 48 196 0.0 0.0 0.00 0.00 0.00 90 1013.3
20260502053010 48 194 0.0 0.0 0.00 0.00 0.00 89 1013.1
20260502051508 48 194 0.0 3.0 0.00 0.00 0.00 88 1013.2
20260502050011 48 214 0.0 0.0 0.00 0.00 0.00 88 1013.3
20260502044507 48 206 0.0 3.0 0.00 0.00 0.00 87 1013.2
20260502043007 49 193 0.0 1.0 0.00 0.00 0.00 87 1013.1
20260502041507 50 197 0.0 2.0 0.00 0.00 0.00 87 1013.0
20260502040006 51 214 0.0 0.0 0.00 0.00 0.00 86 1012.7
20260502034505 52 214 0.0 4.0 0.00 0.00 0.00 86 1012.6
20260502033005 53 180 0.0 3.0 0.00 0.00 0.00 86 1012.5
20260502031505 55 234 0.0 2.0 0.00 0.00 0.00 86 1012.3
20260502030005 56 248 0.0 2.0 0.00 0.00 0.00 85 1012.1
20260502024503 57 202 0.0 4.0 0.00 0.00 0.00 85 1012.0
20260502023006 58 182 0.0 5.0 0.00 0.00 0.00 83 1012.0
20260502021503 59 167 1.0 7.0 0.00 0.00 0.00 81 1012.0
20260502020002 60 216 1.0 5.0 0.00 0.00 0.00 79 1012.1
20260502014600 61 201 0.0 5.0 0.00 0.00 0.00 78 1012.1
20260502013103 62 207 1.0 6.0 0.00 0.00 0.00 75 1012.1
20260502011600 63 190 1.0 7.0 0.00 0.00 0.00 74 1012.1
20260502010159 64 250 1.0 6.0 0.00 0.00 0.00 73 1012.2
20260502004557 65 232 1.0 7.0 0.00 0.00 0.00 72 1012.3
20260502003056 66 193 3.0 8.0 0.00 0.00 0.00 71 1012.4
20260502001558 67 226 3.0 10.0 0.00 0.00 0.00 69 1012.4
20260502000100 66 178 0.0 8.0 0.00 0.00 0.00 69 1012.3
20260501234558 67 173 1.0 8.0 0.00 0.00 0.00 69 1012.4
20260501233050 67 193 3.0 8.0 0.00 0.00 0.00 68 1012.6
20260501231554 68 242 2.0 8.0 0.00 0.00 0.00 67 1012.8
20260501230050 67 184 4.0 11.0 0.00 0.00 0.00 67 1012.8
20260501224546 67 161 3.0 9.0 0.00 0.00 0.00 68 1013.0
20260501223047 67 269 5.0 12.0 0.00 0.00 0.00 68 1013.4
20260501221553 68 230 2.0 8.0 0.00 0.00 0.00 69 1013.5
20260501220044 68 213 4.0 9.0 0.00 0.00 0.00 67 1013.7
20260501214547 68 184 1.0 9.0 0.00 0.00 0.00 69 1013.8
20260501213040 69 173 2.0 10.0 0.00 0.00 0.00 67 1013.9
20260501211539 69 195 0.0 9.0 0.00 0.00 0.00 68 1014.1
20260501210034 68 190 2.0 6.0 0.00 0.00 0.00 71 1014.2
20260501204531 66 157 2.0 8.0 0.00 0.00 0.00 72 1014.3
20260501203030 67 180 0.0 5.0 0.00 0.00 0.00 72 1014.4
20260501201528 66 191 0.0 6.0 0.00 0.00 0.00 76 1014.6
20260501200035 65 184 1.0 8.0 0.00 0.00 0.00 75 1014.7
20260501194533 65 171 1.0 8.0 0.00 0.00 0.00 75 1014.8
20260501193021 64 246 0.0 5.0 0.00 0.00 0.00 77 1015.0
20260501191522 64 92 0.0 6.0 0.00 0.00 0.00 80 1015.1
20260501190030 63 132 0.0 5.0 0.00 0.00 0.00 81 1015.2
20260501184515 62 193 2.0 6.0 0.00 0.00 0.00 82 1015.3
20260501183010 58 159 0.0 5.0 0.00 0.00 0.00 84 1015.5
20260501181518 59 134 0.0 3.0 0.00 0.00 0.00 90 1015.5
20260501180010 58 134 0.0 0.0 0.00 0.00 0.00 93 1015.6
20260501174501 57 228 0.0 1.0 0.00 0.00 0.00 93 1015.6
20260501173114 55 159 0.0 0.0 0.00 0.00 0.00 94 1015.6
20260501171556 55 310 0.0 0.0 0.00 0.00 0.00 94 1015.6